{"data":{"norad_id":67917,"intl_designator":"2026-036P","name":"STARLINK-36722","alt_names":[],"object_type":"PAYLOAD","status":"ACTIVE","operator":null,"country":"US","launch_date":"2026-02-22","launch_site_code":"AFETR","launch_vehicle":null,"mission":null,"orbit_class":"UNKNOWN","rcs_meters":null,"size_class":null,"mass_kg":null,"dimensions":null,"purposes":["comms"],"wikipedia_slug":null,"has_3d_model":false,"image_url":null,"decayed_at":null,"tle_current":{"epoch":"2026-09-19T22:32:55.004064Z","epoch_age_seconds":111681,"freshness":"FRESH","line1":"1 67917U 26036P   26262.93952551  .00009093  00000+0  33942-3 0  9998","line2":"2 67917  42.9961 227.9198 0000048 340.0610  20.0239 15.27591806 33430","mean_motion":15.27591806,"eccentricity":4.8e-6,"inclination_deg":42.9961,"raan_deg":227.9198,"arg_perigee_deg":340.061,"mean_anomaly_deg":20.0239,"bstar":0.00033942,"rev_number":3343,"period_min":94.266020172669,"perigee_km":482.98081133257,"apogee_km":483.04667837972,"semimajor_km":6861.1507448561,"source":"CELESTRAK","updated_at":"2026-09-20T09:00:43.703586Z"}}}